Weather Roundup
Issued by NWS Springfield, MO

Home | Current Version | Previous Version | Text Only | Print | Product List | Glossary Off
Versions: 1 2 3 4 5 6 7 8 9 10 11 12 13 14 15 16 17 18 19 20 21 22 23 24 25 26 27 28 29 30 31 32 33 34 35 36 37 38 39 40 41 42 43 44 45 46 47 48 49 50

000
NZUS99 KSGF 022207
HRRSGF

HOURLY WEATHER
NATIONAL WEATHER SERVICE SPRINGFIELD MO
500 PM CDT MON MAY 02 2016

......SGF CWA......

CITY           SKY/WX    TMP DP  RH WIND       PRES   REMARKS
SPRINGFIELD    CLOUDY    53  44  71 NW10      30.06F
JOPLIN         CLOUDY    56  45  66 NE6       30.08F
WEST PLAINS    CLOUDY    60  45  57 NW8       30.03F
ROLLA          CLOUDY    53  46  77 NW6       30.03S
OSAGE BEACH    CLOUDY    54  39  58 NW5       30.06S
BRANSON        CLOUDY    54  48  82 NW6       30.06F

......SURROUNDING SGF CWA......

CITY           SKY/WX    TMP DP  RH WIND       PRES   REMARKS
CHANUTE        CLOUDY    56  45  66 CALM      30.08F
PARSONS        CLOUDY    58  46  64 NW6       30.09F
COFFEYVILLE    CLOUDY    58  44  60 N10       30.09F
EMPORIA        CLOUDY    60  42  51 NE10      30.07F
GROVE OK       CLOUDY    55  46  71 NW5       30.09S
ROGERS AR      CLOUDY    54  46  74 NW14      30.07F
SILOAM SPRINGS CLOUDY    54  39  58 N9        30.09S
HARRISON AR    LGT RAIN  53  48  83 NW7       30.05S
NEAR YELLVILLE CLOUDY   N/A N/A N/A NW8       30.01S

......KANSAS AND MISSOURI......

CITY           SKY/WX    TMP DP  RH WIND       PRES   REMARKS
KANSAS CTY INT CLOUDY    55  46  71 S3        30.07F
DOWNTOWN KC    CLOUDY    56  45  66 CALM      30.07F
COLUMBIA       CLOUDY    54  48  80 NW6       30.05F
SEDALIA        LGT RAIN  53  49  86 N6        30.07S FOG
ST JOSEPH      CLOUDY    60  42  51 CALM      30.06F
ST LOUIS       CLOUDY    57  48  72 NW5       30.03S
SPIRIT OF STL  CLOUDY    56  50  80 W5        30.03S
KIRKSVILLE     CLOUDY    55  46  71 CALM      30.05F
WICHITA        PTSUNNY   63  40  42 NW12      30.08F
TOPEKA         CLOUDY    58  43  57 N7        30.07F
OLATHE         CLOUDY    52  46  80 NW3       30.08S

......TENNESSEE......

CITY           SKY/WX    TMP DP  RH WIND       PRES   REMARKS
MEMPHIS        CLOUDY    65  57  75 NW12      29.97R
NASHVILLE      PTSUNNY   66  60  81 NW8       29.94S

......ARKANSAS.......

CITY           SKY/WX    TMP DP  RH WIND       PRES   REMARKS
FAYETTEVILLE   CLOUDY    54  47  77 NW9       30.06F
FT SMITH       CLOUDY    62  47  57 N13       30.05F
LITTLE ROCK    CLOUDY    70  53  54 NW9       29.99F

......OKLAHOMA.......

CITY           SKY/WX    TMP DP  RH WIND       PRES   REMARKS
TULSA          PTSUNNY   59  46  62 N8        30.07F
PONCA CITY     CLOUDY    59  43  55 NE3       30.10F
MCALESTER      CLOUDY    59  45  59 N10       30.11R
OKLAHOMA CITY  PTSUNNY   63  43  48 N15       30.10F

......IOWA............

CITY           SKY/WX    TMP DP  RH WIND       PRES   REMARKS
DES MOINES     LGT RAIN  60  37  42 E9        30.05S
QUAD CITIES    CLOUDY    60  40  47 NE7       30.02F

......ILLINOIS........

CITY           SKY/WX    TMP DP  RH WIND       PRES   REMARKS
QUINCY         CLOUDY    53  48  83 N10       30.04S
CHICAGO        PTSUNNY   57  33  40 N14       30.01F




USA.gov is the U.S. government's official web portal to all federal, state and local government web resources and services.